FW1908 Weather Reports


time (UTC)temp
C
wind
direction
speed
KPH
gust
KPH
rain 1hr
cm
rain 24hr
cm
rain mn
cm
humidity
%
barometer
mb
20260505031842 17 266 0.0 0.0 0.00 0.00 0.00 52 1016.0
20260505031341 17 266 0.0 0.0 0.00 0.00 0.00 52 1016.0
20260505030842 17 266 0.0 0.0 0.00 0.00 0.00 51 1016.0
20260505030341 17 266 0.0 0.0 0.00 0.00 0.00 51 1016.1
20260505025841 17 266 0.0 0.0 0.00 0.00 0.00 50 1016.0
20260505025342 17 266 0.0 0.0 0.00 0.00 0.00 49 1016.1
20260505024841 17 266 0.0 0.0 0.00 0.00 0.00 49 1016.0
20260505024342 17 266 0.0 0.0 0.00 0.00 0.00 48 1016.0
20260505023842 18 266 0.0 0.0 0.00 0.00 0.00 48 1015.9
20260505023337 18 266 0.0 0.0 0.00 0.00 0.00 47 1015.9
20260505022838 18 266 0.0 0.0 0.00 0.00 0.00 48 1015.8
20260505022338 18 266 0.0 0.0 0.00 0.00 0.00 48 1015.8
20260505022055 18 266 0.0 0.0 0.00 0.00 0.00 47 1015.8
20260505021337 18 266 0.0 0.0 0.00 0.00 0.00 47 1015.7
20260505020837 18 266 0.0 0.0 0.00 0.00 0.00 47 1015.7
20260505020337 18 266 0.0 0.0 0.00 0.00 0.00 46 1015.7
20260505015838 18 266 0.0 0.0 0.00 0.00 0.00 44 1015.6
20260505015338 19 266 0.0 0.0 0.00 0.00 0.00 44 1015.5
20260505014833 19 266 0.0 0.0 0.00 0.00 0.00 44 1015.5
20260505014333 19 266 0.0 0.0 0.00 0.00 0.00 44 1015.4
20260505013834 19 266 0.0 0.0 0.00 0.00 0.00 44 1015.3
20260505013334 20 266 0.0 0.0 0.00 0.00 0.00 43 1015.3
20260505012832 20 266 0.0 0.0 0.00 0.00 0.00 43 1015.2
20260505012330 20 266 0.0 0.0 0.00 0.00 0.00 42 1015.2
20260505011829 20 266 0.0 0.0 0.00 0.00 0.00 41 1015.1
20260505011325 21 266 0.0 0.0 0.00 0.00 0.00 40 1015.1
20260505010825 21 266 0.0 0.0 0.00 0.00 0.00 40 1015.0
20260505010549 21 266 0.0 0.0 0.00 0.00 0.00 40 1015.0
20260505010041 21 266 0.0 0.0 0.00 0.00 0.00 39 1014.9
20260505005319 21 266 0.0 0.0 0.00 0.00 0.00 37 1014.9
20260505004817 22 266 0.0 0.0 0.00 0.00 0.00 37 1014.8
20260505003811 22 265 0.0 0.0 0.00 0.00 0.00 37 1014.8
20260505003302 22 265 0.0 0.0 0.00 0.00 0.00 37 1014.7
20260505002300 23 265 0.0 0.0 0.00 0.00 0.00 35 1014.6
20260505001802 23 265 0.0 0.0 0.00 0.00 0.00 35 1014.6
20260505000757 23 265 0.0 0.0 0.00 0.00 0.00 34 1014.6
20260505000255 23 265 0.0 4.8 0.00 0.00 0.00 34 1014.6
20260504235253 23 307 0.0 8.0 0.00 0.00 0.00 33 1014.5
20260504234753 23 224 1.6 8.0 0.00 0.00 0.00 33 1014.4
20260504234251 24 194 0.0 11.3 0.00 0.00 0.00 33 1014.3
20260504234019 24 275 0.0 11.3 0.00 0.00 0.00 33 1014.1
20260504233512 24 248 0.0 4.8 0.00 0.00 0.00 32 1014.1
20260504232749 24 224 0.0 3.2 0.00 0.00 0.00 31 1014.0
20260504232248 24 302 0.0 1.6 0.00 0.00 0.00 30 1014.0
20260504231747 25 39 1.6 9.7 0.00 0.00 0.00 29 1013.9
20260504231518 25 228 1.6 11.3 0.00 0.00 0.00 30 1013.9
20260504230746 25 264 1.6 11.3 0.00 0.00 0.00 30 1013.9
20260504230244 25 243 1.6 6.4 0.00 0.00 0.00 32 1013.9
20260504225739 25 261 0.0 3.2 0.00 0.00 0.00 31 1013.9
20260504225233 25 188 1.6 11.3 0.00 0.00 0.00 32 1013.9
20260504224726 25 245 1.6 11.3 0.00 0.00 0.00 31 1013.9
20260504224221 25 271 0.0 6.4 0.00 0.00 0.00 30 1013.9
20260504223715 25 252 1.6 6.4 0.00 0.00 0.00 29 1013.9
20260504223209 25 254 1.6 8.0 0.00 0.00 0.00 29 1013.9
20260504222925 25 287 1.6 11.3 0.00 0.00 0.00 28 1013.9
20260504222422 25 300 3.2 11.3 0.00 0.00 0.00 28 1013.9
20260504221651 25 281 1.6 11.3 0.00 0.00 0.00 29 1013.9
20260504221145 25 180 1.6 8.0 0.00 0.00 0.00 27 1014.0
20260504220638 25 269 1.6 9.7 0.00 0.00 0.00 29 1014.0
20260504220133 25 265 1.6 11.3 0.00 0.00 0.00 27 1014.0
20260504215846 25 252 1.6 11.3 0.00 0.00 0.00 27 1013.9
20260504215121 25 234 3.2 14.5 0.00 0.00 0.00 27 1013.9
20260504214615 25 238 3.2 14.5 0.00 0.00 0.00 27 1014.0
20260504214109 25 273 1.6 9.7 0.00 0.00 0.00 26 1013.9
20260504213604 25 316 1.6 6.4 0.00 0.00 0.00 26 1013.9
20260504212551 25 190 1.6 4.8 0.00 0.00 0.00 26 1014.1
20260504212046 25 37 3.2 9.7 0.00 0.00 0.00 26 1014.0
20260504211803 25 255 3.2 11.3 0.00 0.00 0.00 27 1014.0
20260504211034 25 259 1.6 11.3 0.00 0.00 0.00 27 1014.0
20260504210755 25 169 1.6 9.7 0.00 0.00 0.00 30 1014.0
20260504210246 25 267 3.2 9.7 0.00 0.00 0.00 28 1014.1
20260504205740 25 288 1.6 12.9 0.00 0.00 0.00 28 1014.3
20260504205009 26 271 0.0 12.9 0.00 0.00 0.00 27 1014.3
20260504204218 26 255 3.2 12.9 0.00 0.00 0.00 25 1014.5
20260504203451 26 290 4.8 12.9 0.00 0.00 0.00 26 1014.5
20260504202945 26 284 3.2 12.9 0.00 0.00 0.00 27 1014.6
20260504202700 26 257 0.0 8.0 0.00 0.00 0.00 27 1014.6
20260504201933 26 75 1.6 11.3 0.00 0.00 0.00 26 1014.7
20260504201427 26 216 1.6 11.3 0.00 0.00 0.00 31 1014.7
20260504201154 26 286 1.6 6.4 0.00 0.00 0.00 26 1014.8
20260504200425 26 77 1.6 8.0 0.00 0.00 0.00 27 1014.7
20260504195926 26 231 1.6 8.0 0.00 0.00 0.00 25 1014.8
20260504195425 27 277 1.6 8.0 0.00 0.00 0.00 25 1015.0
20260504194925 27 273 1.6 6.4 0.00 0.00 0.00 28 1014.9
20260504194424 27 233 1.6 6.4 0.00 0.00 0.00 28 1014.8
20260504193926 26 323 1.6 12.9 0.00 0.00 0.00 25 1015.0
20260504193643 26 251 3.2 12.9 0.00 0.00 0.00 25 1015.0
20260504192924 26 284 3.2 11.3 0.00 0.00 0.00 27 1015.1
20260504192641 26 215 1.6 9.7 0.00 0.00 0.00 25 1015.2
20260504191923 26 75 1.6 9.7 0.00 0.00 0.00 25 1015.2
20260504191423 27 36 3.2 12.9 0.00 0.00 0.00 28 1015.4
20260504190923 26 254 3.2 12.9 0.00 0.00 0.00 27 1015.4
20260504190423 27 289 1.6 12.9 0.00 0.00 0.00 27 1015.4
20260504185923 26 11 1.6 9.7 0.00 0.00 0.00 28 1015.4
20260504185423 26 211 1.6 8.0 0.00 0.00 0.00 31 1015.6
20260504185145 26 237 3.2 8.0 0.00 0.00 0.00 31 1015.5
20260504184417 26 293 3.2 8.0 0.00 0.00 0.00 29 1015.6
20260504183911 26 248 3.2 9.7 0.00 0.00 0.00 28 1015.8
20260504183405 26 145 1.6 9.7 0.00 0.00 0.00 27 1015.8
20260504182859 26 283 1.6 9.7 0.00 0.00 0.00 31 1015.9
20260504182353 26 92 1.6 9.7 0.00 0.00 0.00 30 1016.0
20260504182113 26 76 1.6 8.0 0.00 0.00 0.00 30 1016.0
20260504181341 26 55 1.6 8.0 0.00 0.00 0.00 30 1016.0
20260504180834 26 209 1.6 8.0 0.00 0.00 0.00 28 1016.1
20260504180330 26 246 1.6 8.0 0.00 0.00 0.00 31 1016.2
20260504175827 26 323 1.6 8.0 0.00 0.00 0.00 31 1016.3
20260504175326 26 329 1.6 8.0 0.00 0.00 0.00 29 1016.3
20260504174827 26 93 1.6 8.0 0.00 0.00 0.00 33 1016.3
20260504174327 26 80 1.6 6.4 0.00 0.00 0.00 30 1016.3
20260504173825 26 242 1.6 6.4 0.00 0.00 0.00 32 1016.3
20260504173327 25 82 1.6 11.3 0.00 0.00 0.00 33 1016.4
20260504172826 25 151 3.2 11.3 0.00 0.00 0.00 33 1016.5
20260504172549 25 175 1.6 12.9 0.00 0.00 0.00 34 1016.6
20260504172042 25 94 1.6 12.9 0.00 0.00 0.00 34 1016.5
20260504171322 25 331 1.6 8.0 0.00 0.00 0.00 30 1016.5
20260504170822 25 226 1.6 8.0 0.00 0.00 0.00 34 1016.5
20260504170322 25 141 1.6 4.8 0.00 0.00 0.00 33 1016.6
20260504160315 22 268 1.6 6.4 0.00 0.00 0.00 41 1017.8
20260504150809 20 181 1.6 8.0 0.00 0.00 0.00 49 1017.9
20260504150308 20 98 0.0 4.8 0.00 0.00 0.00 54 1018.0
20260504141302 16 300 0.0 4.8 0.00 0.00 0.00 67 1018.1
20260504140803 15 300 0.0 3.2 0.00 0.00 0.00 68 1018.0
20260504130758 12 224 1.6 6.4 0.00 0.00 0.00 81 1018.0
20260504130256 11 316 1.6 6.4 0.00 0.00 0.00 82 1018.1
20260504120252 7 76 0.0 0.0 0.00 0.00 0.00 90 1017.6
20260504110656 7 243 0.0 0.0 0.00 0.00 0.00 87 1017.8
20260504110149 7 243 0.0 0.0 0.00 0.00 0.00 87 1017.7
20260504100544 7 249 0.0 0.0 0.00 0.00 0.00 87 1017.6
20260504081838 8 249 0.0 1.6 0.00 0.00 0.00 83 1017.1
20260504081332 8 249 0.0 0.0 0.00 0.00 0.00 83 1017.1
20260504081045 8 249 0.0 0.0 0.00 0.00 0.00 83 1017.1
20260504080320 8 249 0.0 0.0 0.00 0.00 0.00 83 1017.1
20260504050619 10 249 1.6 1.6 0.00 0.00 0.00 77 1017.5
20260504050116 10 249 1.6 1.6 0.00 0.00 0.00 76 1017.5
20260504045616 10 249 0.0 1.6 0.00 0.00 0.00 76 1017.6
20260504045116 10 249 0.0 1.6 0.00 0.00 0.00 75 1017.7
20260504044613 10 249 0.0 1.6 0.00 0.00 0.00 75 1017.7
20260504044114 10 249 0.0 0.0 0.00 0.00 0.00 74 1017.6
20260504043613 10 249 0.0 0.0 0.00 0.00 0.00 74 1017.7
20260504043111 10 249 0.0 0.0 0.00 0.00 0.00 73 1017.7
20260504042612 10 249 0.0 0.0 0.00 0.00 0.00 73 1017.7
20260504042112 10 249 0.0 0.0 0.00 0.00 0.00 73 1017.8
20260504041610 11 249 0.0 0.0 0.00 0.00 0.00 73 1017.8
20260504041108 11 249 0.0 0.0 0.00 0.00 0.00 72 1017.8
20260504040836 11 249 0.0 0.0 0.00 0.00 0.00 71 1017.8
20260504040107 11 249 0.0 0.0 0.00 0.00 0.00 71 1017.9
20260504035821 11 249 0.0 0.0 0.00 0.00 0.00 71 1017.9
20260504035315 11 249 0.0 0.0 0.00 0.00 0.00 70 1017.8
20260504034550 11 249 0.0 0.0 0.00 0.00 0.00 70 1017.8
20260504034045 11 249 0.0 0.0 0.00 0.00 0.00 69 1017.8
20260504033754 11 249 0.0 0.0 0.00 0.00 0.00 69 1017.9
20260504033033 11 249 0.0 0.0 0.00 0.00 0.00 69 1017.9
20260504032750 11 249 0.0 0.0 0.00 0.00 0.00 68 1017.9